Location: *
(49.4547°N, 7.9131°E)
Time: 04:23:48
(UTC+00:00)

Cosmos 1741 Rocket - Pass Details

Date: 22 September 2019
Orbit: 761 x 783 km, 74.0° (Epoch: 23 October)

Event Time Altitude Azimuth Distance (km) Brightness Sun altitude
Rises 19:21:47 0° 338° (NNW) 3,284 8.0 -18.9°
Reaches altitude 10° 19:24:13 10° 341° (NNW) 2,351 7.1 -19.3°
Maximum altitude 19:29:32 64° 63° (ENE) 867 4.0 -20.1°
Enters shadow 19:31:14 42° 127° (SE) 1,115 4.3 -20.3°
